Flag Weather past 2 weeks in Goch, North Rhine-Westphalia, Germany

Now
37 °F

Clear.


Feels Like: 33 °F
Forecast: 32 / 40 °F
Wind: 6 mph from East

Location: Niederrhein

Current Time: Nov 29, 2014 at 1:36:10 AM

Latest Report: Nov 28, 2014 at 11:50 PM


Visibility: 4 mi

Pressure: 29.92 "Hg

Humidity: 93%

Dew point: 36 °F

Location of GochLocation

Historic Weather in Goch — Graph

°F

Goch temperature yesterday

Maximum temperature yesterday: 48 °F (at 12:50 PM)
Minimum temperature yesterday: 37 °F (at 10:20 PM)
Average temperature yesterday: 43 °F

Past Weeks' High & Low Weather Summary

 TemperatureHumidityPressure
High57 °F (Nov 23, 2:20 PM)100% (Nov 13, 11:20 PM)30.33 "Hg (Nov 13, 11:20 PM)
Low30 °F (Nov 25, 5:20 AM)62% (Nov 24, 1:50 PM)29.50 "Hg (Nov 16, 2:50 PM)
Average46 °F93%29.94 "Hg
* Reported Nov 13 11:20 PM — Nov 28 11:50 PM, Goch, Weather by CustomWeather, © 2014

Note: Actual official high and low records may vary slightly from our data, if they occured in-between our weather recording intervals... More about our weather records

Advertising

Goch weather history for previous 24 hours

 ConditionsComfort  
Time TempWeatherWind HumidityBarometerVisibility
11:50 PM
Nov 28
37 °FClear.6 mph93%29.92 "Hg4 mi
11:20 PM37 °FClear.6 mph93%29.92 "Hg4 mi
10:50 PM37 °FClear.6 mph93%29.92 "Hg4 mi
10:20 PM37 °FPassing clouds.6 mph93%29.92 "HgN/A
9:50 PM39 °FPassing clouds.7 mph87%29.89 "HgN/A
9:20 PM39 °FPassing clouds.7 mph93%29.89 "HgN/A
8:50 PM39 °FPassing clouds.7 mph93%29.89 "HgN/A
8:20 PM39 °FPassing clouds.7 mph93%29.86 "HgN/A
7:50 PM41 °FPassing clouds.6 mph87%29.86 "HgN/A
7:20 PM41 °FClear.7 mph93%29.86 "Hg10 mi
6:50 PM43 °FPassing clouds.9 mph87%29.86 "HgN/A
6:20 PM45 °FPassing clouds.8 mph87%29.83 "HgN/A
5:50 PM45 °FPassing clouds.7 mph87%29.86 "HgN/A
5:20 PM45 °FPassing clouds.7 mph87%29.83 "HgN/A
4:50 PM45 °FPassing clouds.5 mph87%29.83 "HgN/A
4:20 PM46 °FPassing clouds.6 mph87%29.80 "HgN/A
3:50 PM46 °FPassing clouds.5 mph87%29.80 "HgN/A
3:20 PM48 °FPassing clouds.5 mph87%29.80 "HgN/A
2:50 PM48 °FPassing clouds.5 mph87%29.80 "HgN/A
2:20 PM48 °FPassing clouds.7 mph87%29.80 "HgN/A
1:50 PM48 °FPassing clouds.6 mph87%29.80 "HgN/A
1:20 PM46 °FPassing clouds.8 mph87%29.80 "HgN/A
12:50 PM48 °FPassing clouds.8 mph87%29.80 "HgN/A
12:20 PM46 °FPassing clouds.6 mph93%29.77 "HgN/A
11:50 AM46 °FPassing clouds.7 mph87%29.80 "HgN/A
11:20 AM46 °FPassing clouds.8 mph87%29.80 "HgN/A
10:50 AM45 °FPassing clouds.6 mph100%29.80 "HgN/A
10:20 AM45 °FPassing clouds.8 mph93%29.80 "HgN/A
9:50 AM45 °FPassing clouds.8 mph93%29.80 "HgN/A
9:20 AM43 °FPassing clouds.7 mph100%29.77 "HgN/A
8:50 AM43 °FPassing clouds.6 mph100%29.77 "HgN/A
8:20 AM43 °FPassing clouds.8 mph93%29.77 "HgN/A
7:50 AM43 °FPassing clouds.8 mph93%29.77 "HgN/A
7:20 AM43 °FPassing clouds.9 mph100%29.77 "HgN/A
6:50 AM43 °FPassing clouds.9 mph100%29.77 "HgN/A
6:20 AM43 °FPassing clouds.7 mph100%29.74 "HgN/A
5:50 AM43 °FClear.9 mph93%29.74 "Hg10 mi
4:50 AM43 °FPassing clouds.10 mph100%29.74 "Hg5 mi
Weather by CustomWeather, © 2014

See weather overviewHow to use our weather pages